This is the latest recevied weather packets stored in our database for station/object RN1M-13. If no packets are shown the sender has not sent any weather packets the latest 10 day(s).
| Time | Temp. | Humidity | Pressure | Rain* | Wind** | Luminosity | Snow |
|---|---|---|---|---|---|---|---|
| 1787478796 | 17.22° C | 100% | 999.9 hPa | - | - | - | - |
| 1787477896 | 17.78° C | 100% | 998.3 hPa | - | - | - | - |
| 1787476996 | 17.22° C | 100% | 998.3 hPa | - | - | - | - |
| 1787476103 | 18.33° C | 100% | 997.4 hPa | - | - | - | - |
| 1787475198 | 16.67° C | 100% | 997.5 hPa | - | - | - | - |
| 1787474301 | 17.22° C | 100% | 999.9 hPa | - | - | - | - |
| 1787473400 | 17.22° C | 100% | 1000.1 hPa | - | - | - | - |
| 1787472536 | 16.67° C | 100% | 1000.8 hPa | - | - | - | - |
| 1787472500 | 16.67° C | 100% | 1000.8 hPa | - | - | - | - |
| 1787471600 | 16.67° C | 100% | 999.9 hPa | - | - | - | - |
| 1787470700 | 16.67° C | 100% | 999.5 hPa | - | - | - | - |
| 1787469800 | 16.67° C | 100% | 999.9 hPa | - | - | - | - |
| 1787468900 | 16.11° C | 100% | 999.1 hPa | - | - | - | - |
| 1787468000 | 16.67° C | 100% | 998.8 hPa | - | - | - | - |
| 1787467100 | 16.11° C | 100% | 998.7 hPa | - | - | - | - |
| 1787466200 | 16.11° C | 100% | 998.6 hPa | - | - | - | - |
| 1787465307 | 15.56° C | 100% | 998.1 hPa | - | - | - | - |
| 1787464402 | 15.56° C | 100% | 995.3 hPa | - | - | - | - |
| 1787463505 | 16.11° C | 100% | 995.1 hPa | - | - | - | - |
| 1787462605 | 16.11° C | 100% | 995.4 hPa | - | - | - | - |
| 1787461705 | 16.67° C | 100% | 995.8 hPa | - | - | - | - |
| 1787452717 | 16.67° C | 100% | 994.3 hPa | - | - | - | - |
| 1787451817 | 17.22° C | 100% | 993 hPa | - | - | - | - |
| 1787450917 | 17.78° C | 100% | 993 hPa | - | - | - | - |
| 1787450008 | 17.78° C | 100% | 993.3 hPa | - | - | - | - |
* Rain since midnight (hover to see other rain measurements)
** Current wind speed in m/s (hover to see current wind gust speed)